Temp
78 82 79 77 77 79 79 79 77 78 77 74 75 72 71 69 69 70 69 69 68 67
80 81 79 76 77 77 80 79 78 77 76 75 73 72 70 69 69 69 69 68 68 68
81 82 80 76 78 78 77 78 78 76 77 74 74 72 70 69 69 68 68 69 68 68
81 81 81 78 79 78 78 76 78 78 75 75 74 73 70 69 69 69 68 69 68 68
82 81 81 81 79 78 79 78 78 77 77 75 75 73 72 70 72 68 68 68 67 67
82 81 81 81 80 79 81 78 77 78 76 75 74 73 73 72 69 69 69 69 69 69
82 82 82 82 81 79 79 77 77 77 76 75 75 74 73 71 68 68 69 69 72 71
83 83 83 82 81 81 78 77 77 74 74 73 74 76 71 72 68 68 69 70 72 72
83 82 81 81 80 79 79 76 76 75 74 71 76 71 70 72 71 69 68 70 71 72
83 81 81 80 79 77 78 76 75 74 74 71 70 67 68 70 71 70 70 71 69 71
83 82 81 80 79 78 78 76 74 74 72 70 69 65 65 68 70 69 70 70 69 67
83 81 81 80 78 77 76 74 75 72 70 68 69 62 61 64 66 68 68 69 68 67
84 82 79 79 76 74 73 72 72 71 69 67 70 61 61 63 68 67 66 65 69 65
81 79 76 74 72 72 72 72 72 71 70 71 71 65 59 59 69 68 65 63 63 65
MSLP
1011.04 1011.09 1011.37 1011.97 1012.51 1012.90 1013.23 1013.63 1014.05 1014.42 1014.86 1015.38 1015.86 1016.47 1016.85 1017.39 1017.65 1017.79 1018.05 1018.27 1018.48 1018.72
1010.18 1010.31 1010.78 1011.39 1011.85 1012.32 1012.56 1013.02 1013.51 1014.02 1014.61 1015.06 1015.56 1016.13 1016.84 1017.34 1017.67 1017.78 1017.94 1018.01 1018.06 1018.26
1009.05 1009.48 1010.28 1010.87 1011.16 1011.52 1011.92 1012.26 1012.90 1013.50 1014.11 1014.78 1015.34 1015.87 1016.48 1016.94 1017.34 1017.72 1017.81 1017.97 1018.20 1018.07
1008.08 1008.80 1009.68 1010.21 1010.48 1010.79 1011.18 1011.71 1012.26 1012.91 1013.66 1014.33 1014.97 1015.41 1015.97 1016.49 1016.92 1017.35 1017.55 1017.68 1017.86 1018.07
1007.27 1008.08 1008.86 1009.24 1009.71 1010.07 1010.40 1010.88 1011.53 1012.26 1012.96 1013.57 1014.08 1014.66 1015.06 1015.72 1016.25 1016.77 1017.18 1017.34 1017.68 1017.82
1006.45 1007.12 1007.76 1008.31 1008.87 1009.20 1009.64 1010.29 1010.97 1011.52 1012.09 1012.65 1013.17 1013.80 1014.46 1015.13 1015.69 1016.20 1016.63 1016.93 1017.24 1017.36
1005.37 1005.78 1006.51 1007.21 1007.87 1008.43 1008.96 1009.58 1010.15 1010.72 1011.37 1012.00 1012.56 1013.13 1013.91 1014.70 1015.39 1015.89 1016.10 1016.22 1016.49 1016.75
1004.17 1004.82 1005.71 1006.47 1007.09 1007.72 1008.40 1008.96 1009.53 1010.36 1010.98 1011.58 1012.19 1012.88 1013.53 1014.10 1014.70 1015.19 1015.67 1015.70 1015.93 1016.06
1003.39 1004.19 1004.89 1005.71 1006.32 1007.02 1007.67 1008.37 1009.11 1009.83 1010.60 1011.43 1011.96 1012.47 1012.99 1013.61 1014.44 1015.12 1015.62 1015.52 1015.43 1015.54
1002.31 1003.11 1003.92 1004.91 1005.76 1006.44 1007.13 1007.91 1008.66 1009.42 1010.21 1010.90 1011.54 1011.88 1012.34 1012.98 1013.61 1014.25 1014.67 1015.04 1015.07 1015.22
1001.12 1002.09 1003.15 1004.12 1004.99 1005.83 1006.50 1007.21 1008.08 1008.92 1009.67 1010.41 1011.10 1011.52 1012.02 1012.40 1013.01 1013.52 1013.70 1014.03 1014.34 1014.60
999.91 1001.02 1002.23 1003.26 1004.47 1005.33 1006.30 1007.34 1007.75 1008.63 1009.42 1010.25 1010.97 1011.46 1011.94 1012.29 1012.67 1013.03 1013.37 1013.61 1014.05 1014.40
999.25 1000.38 1001.78 1002.84 1004.11 1004.98 1005.86 1006.43 1007.38 1008.52 1009.10 1009.82 1010.62 1011.09 1011.36 1011.82 1012.45 1012.95 1013.24 1013.37 1013.47 1013.80
999.25 1000.39 1001.38 1002.58 1003.86 1005.08 1005.80 1006.37 1007.15 1008.21 1008.78 1009.38 1009.92 1010.45 1011.04 1011.56 1012.05 1012.54 1013.08 1013.48 1013.72 1013.56
Wind_Speed
11 11 9 6 5 8 9 9 9 11 10 9 8 7 6 4 4 5 5 5 3 1
15 15 11 7 7 7 10 9 12 10 11 10 8 8 7 5 5 5 5 6 5 3
17 17 10 7 9 9 7 8 13 12 12 10 10 8 8 6 5 5 5 4 5 4
16 15 14 9 10 10 9 10 13 13 12 12 12 11 9 8 7 7 7 5 6 6
17 15 15 15 11 10 12 11 15 14 14 13 13 12 12 11 8 8 8 7 6 7
18 17 17 17 13 12 14 11 12 15 15 15 14 13 12 11 8 7 8 7 7 7
19 19 18 17 16 12 12 12 13 14 13 13 13 12 11 10 7 6 7 8 9 8
20 18 17 16 15 15 10 10 12 10 10 9 11 9 10 11 8 8 8 7 6 7
18 18 16 16 14 13 14 10 10 11 11 9 8 12 15 11 8 6 6 7 6 6
19 17 17 14 12 12 13 10 10 10 11 9 9 14 16 15 9 9 9 9 7 6
19 19 15 15 14 11 11 13 10 11 9 9 7 10 11 15 8 9 9 9 9 7
20 18 16 16 13 9 10 8 10 8 8 7 6 10 9 9 7 6 6 5 5 7
18 16 14 15 12 9 9 9 7 7 9 11 8 13 15 9 4 5 4 6 6 10
12 14 14 13 10 11 10 9 8 7 9 11 12 9 15 15 7 6 5 4 4 5
Wind_Direction
192 211 217 190 166 175 178 179 172 174 165 161 162 158 165 173 183 179 185 180 155 172
201 209 209 189 179 183 184 174 181 167 162 168 162 162 166 178 193 191 189 200 190 181
202 208 201 178 202 180 185 161 173 168 167 163 172 172 169 178 201 196 199 193 206 221
203 202 201 191 203 190 183 165 173 174 167 173 174 181 173 183 193 194 204 205 198 224
200 197 198 207 204 188 194 178 177 178 179 176 181 181 183 187 188 196 198 205 204 220
201 199 198 203 201 193 196 183 175 180 181 183 181 184 187 187 189 187 199 199 207 218
201 204 201 200 204 196 187 179 181 184 183 183 185 187 181 176 180 195 205 202 207 209
204 205 204 203 201 203 187 181 178 167 176 173 181 181 172 177 178 192 213 215 208 204
200 202 202 200 199 190 195 176 164 172 171 172 188 182 175 174 179 191 212 218 218 210
200 198 200 192 190 184 186 166 168 165 166 176 186 184 177 172 180 191 204 218 208 208
195 200 190 186 186 177 172 169 162 164 164 173 180 166 195 197 186 193 200 196 198 203
190 191 188 181 176 160 149 148 168 155 170 156 171 181 176 173 184 184 203 200 205 201
186 183 169 158 145 139 153 150 155 153 167 173 181 196 199 180 160 193 198 210 211 214
154 148 137 123 133 136 148 157 157 166 165 169 192 187 179 186 182 198 200 194 241 246